Dewpoint
55 56 56 56 57 58 58 58 58 58 59 59 59 59 59 59 59 59 60 60 60 61 61 60 60 60 59 58 58 56 55 29 26 26 26 31 48 55 57 60 60 60 57 38 29 21 7 15 11 19 17 14 25 25 27 27 27 31 18 15 14 14 13 15 10 14 19 17 20 23 25 26 24 26 26 28 29 31 31 30 23 28 27 24 25 27 27 27
55 56 56 57 57 58 58 58 58 58 58 59 59 59 59 59 59 59 60 60 60 61 60 59 60 60 58 57 57 56 45 31 24 24 26 44 56 58 57 60 59 56 51 36 28 22 15 11 15 18 6 11 24 20 26 22 24 23 18 15 5 16 16 17 15 18 18 20 23 25 25 24 24 25 24 24 22 26 25 26 24 26 25 25 25 27 27 28
55 56 56 57 57 57 57 58 58 58 59 59 59 59 59 59 59 59 60 60 60 60 60 60 60 59 59 58 55 52 42 22 21 23 25 53 57 57 57 61 57 53 38 32 33 27 21 17 19 16 12 8 19 21 24 24 29 25 21 12 16 23 18 20 19 23 23 23 22 23 26 25 24 24 26 26 25 24 24 23 25 26 25 25 25 26 26 27
55 55 56 56 57 57 57 57 57 58 58 58 58 59 59 58 59 59 60 60 61 61 60 60 60 59 59 58 54 52 31 25 19 23 25 56 57 55 56 59 57 51 43 38 37 31 27 19 17 14 17 14 22 20 21 26 27 25 19 15 20 21 19 21 22 23 24 26 22 22 24 25 25 26 27 24 22 23 24 26 28 27 25 25 25 25 25 25
54 55 56 56 56 57 57 57 57 58 58 59 59 59 60 59 59 60 60 60 60 60 61 60 60 60 59 56 52 47 29 13 19 21 30 54 56 53 56 57 56 49 42 30 26 22 20 16 15 20 23 13 23 19 21 24 25 27 22 22 20 21 18 23 24 25 25 24 23 23 24 24 26 26 24 22 22 21 24 27 29 28 26 24 24 24 24 24
54 55 56 56 56 56 56 57 57 58 59 59 59 59 59 59 60 60 60 61 60 59 59 60 59 59 58 53 43 37 29 7 29 23 54 54 54 52 56 53 51 45 36 26 23 22 20 17 13 20 16 14 18 19 20 24 28 18 25 23 22 21 22 24 22 25 26 22 23 26 23 25 25 23 21 21 22 23 25 27 29 28 24 22 22 22 23 24
54 55 55 56 56 56 56 57 57 58 59 59 59 59 60 60 60 60 60 61 61 61 60 58 59 58 55 54 46 29 24 24 24 30 46 52 51 51 52 46 49 43 38 26 24 22 23 19 18 25 23 25 22 24 30 27 27 26 20 24 26 24 23 24 22 25 24 22 23 24 27 24 25 23 21 20 21 24 25 26 27 25 22 21 18 16 18 21
55 55 56 56 56 56 56 57 58 58 59 58 59 59 59 60 60 60 61 61 61 59 59 58 57 58 51 43 39 27 24 23 24 38 42 48 37 40 44 42 39 38 29 27 26 23 23 22 18 27 22 22 24 26 32 28 29 29 27 27 26 26 23 21 22 23 22 23 24 24 21 22 23 19 19 18 18 19 19 21 21 19 18 16 16 16 16 16
55 55 55 55 55 56 56 57 58 58 58 59 58 59 60 60 60 60 61 60 58 60 58 57 57 58 52 47 31 21 19 23 26 28 31 28 28 38 42 27 37 29 29 30 28 26 24 28 28 23 22 25 24 30 33 28 26 30 29 28 25 19 20 20 21 22 23 22 24 20 19 20 21 23 17 17 18 17 16 15 15 14 12 12 13 14 13 13
55 55 55 55 55 56 57 58 58 57 58 58 59 60 61 60 59 59 60 60 61 60 59 56 54 46 48 35 37 16 21 26 29 31 25 26 28 37 33 33 30 30 29 29 30 28 26 24 24 22 23 27 26 31 33 29 28 31 31 28 19 17 17 20 20 21 23 22 24 21 17 18 18 20 15 17 17 17 14 13 13 12 11 11 12 14 14 12
55 55 55 55 56 56 57 57 57 57 58 58 59 60 60 59 59 60 60 60 61 59 59 57 55 43 29 27 19 16 24 26 32 25 24 27 30 29 27 30 28 28 28 28 30 29 28 26 25 24 31 24 29 28 30 34 32 28 25 26 22 18 17 19 18 19 22 19 24 22 18 18 18 19 16 16 17 15 13 12 12 11 11 11 10 11 12 12
55 55 55 55 56 57 57 57 57 58 57 59 60 60 60 59 58 58 59 59 59 58 58 55 52 30 28 21 19 19 23 27 33 23 23 28 28 30 34 33 28 27 27 26 30 31 29 32 32 31 22 28 23 28 29 31 29 27 26 20 19 21 16 19 17 19 23 13 22 24 18 19 18 17 16 16 16 14 12 12 12 11 11 11 11 11 12 13
55 55 55 55 56 57 57 57 58 58 58 59 59 60 59 59 58 57 58 56 58 56 57 55 49 41 37 22 22 26 30 31 30 25 21 27 29 30 29 29 29 29 30 27 30 32 37 37 33 24 31 28 28 22 28 27 26 27 21 23 18 18 15 19 21 20 18 13 23 24 11 18 15 16 16 16 15 13 12 11 11 11 11 11 11 11 12 13
55 55 55 56 57 56 57 57 58 58 58 58 59 59 58 58 58 57 58 58 58 58 52 52 44 41 34 25 22 31 33 37 33 20 20 26 28 26 28 29 30 30 33 34 36 38 37 34 30 29 37 27 27 31 27 20 28 13 22 24 17 8 14 20 20 20 14 17 21 23 15 16 15 15 16 16 15 12 11 11 11 11 11 11 12 10 11 11
55 55 56 56 57 56 57 57 57 57 58 58 58 58 57 56 57 58 58 54 57 57 55 50 40 40 25 23 23 27 49 37 19 22 21 27 28 27 27 28 29 31 31 31 30 30 29 35 29 23 22 34 33 30 19 20 22 25 16 5 13 11 8 18 25 21 16 16 20 21 10 16 15 15 15 15 15 13 11 11 10 10 10 10 10 10 10 10
55 55 56 57 57 56 57 57 57 56 56 57 57 57 56 57 57 57 57 56 54 55 50 44 45 28 22 16 16 34 24 20 19 23 21 28 28 27 29 27 27 27 26 25 31 27 28 24 23 26 29 34 24 16 15 14 13 19 16 18 14 14 12 16 23 24 24 20 21 19 13 20 16 15 14 14 14 12 11 11 11 10 10 10 9 10 9 10
55 56 56 56 55 57 57 57 55 56 57 57 57 57 55 56 56 54 53 49 45 48 31 28 37 38 17 24 21 17 18 21 25 19 18 26 28 28 27 26 26 25 27 26 21 28 23 17 26 24 30 23 25 23 12 6 10 6 19 15 15 16 13 6 20 25 22 24 18 20 18 17 16 16 15 14 13 12 11 11 11 11 10 10 10 9 8 7
55 56 56 54 55 57 57 57 56 55 56 57 57 57 47 53 51 50 43 47 49 48 42 37 34 31 24 19 15 17 20 22 24 21 19 26 28 27 26 24 26 25 25 22 14 15 20 11 22 14 15 21 23 18 8 5 10 10 15 17 14 17 20 14 13 25 21 25 22 18 18 17 15 15 15 13 13 11 10 10 10 10 10 9 9 9 9 9
55 56 56 55 56 57 57 57 56 56 56 55 56 56 51 53 52 39 38 36 36 27 24 24 28 17 14 18 20 19 21 24 25 18 18 22 25 27 27 27 23 24 23 16 16 19 21 21 23 14 14 17 21 22 16 18 19 20 23 18 20 21 12 10 15 28 24 19 20 19 16 16 15 14 14 13 11 10 8 8 9 9 9 9 9 9 9 10
55 56 55 56 56 56 55 55 56 56 52 53 50 46 46 30 35 30 34 36 30 28 28 32 31 30 19 20 18 20 24 24 11 13 18 22 26 22 20 23 24 29 29 16 28 18 28 19 17 15 14 21 25 28 28 26 27 27 26 25 21 20 19 23 22 25 27 22 18 20 18 16 15 14 13 13 10 8 7 7 7 8 8 9 9 9 9 10
55 55 55 55 56 57 55 56 56 53 50 51 52 46 28 38 30 21 29 31 31 36 33 31 31 24 19 22 22 22 19 11 14 12 17 23 27 21 19 27 26 15 23 29 27 29 34 15 20 22 26 26 24 28 28 28 28 27 23 24 14 17 12 13 16 26 26 20 15 20 17 17 16 14 13 12 11 8 7 7 7 6 7 7 9 9 9 8
55 55 55 56 56 56 56 56 55 52 49 49 46 35 34 35 37 42 38 20 29 37 30 24 28 18 21 24 24 25 23 15 9 11 17 23 21 15 21 26 25 18 24 29 23 18 16 18 23 26 26 27 27 28 29 26 26 25 19 13 17 5 14 18 23 23 22 21 14 20 18 18 15 14 13 11 11 11 9 8 8 7 7 8 9 10 10 9
55 55 56 56 56 56 56 56 54 51 48 46 43 41 38 41 45 47 42 26 22 28 35 32 21 18 17 22 21 28 10 11 16 11 16 24 26 24 28 19 26 29 24 23 11 9 9 15 23 27 26 24 26 22 24 24 20 12 14 8 8 11 14 5 21 25 22 20 16 21 19 17 17 17 15 14 11 12 13 12 12 12 9 9 8 9 10 8
55 55 56 56 56 56 56 55 53 51 44 45 43 39 40 44 44 41 38 21 21 19 29 26 21 21 20 15 20 21 10 15 19 10 18 21 24 28 25 23 20 26 23 28 21 15 12 21 26 25 21 20 14 19 21 15 6 15 12 11 13 10 11 11 10 18 21 23 22 20 20 17 18 17 17 16 14 12 12 10 11 10 13 12 11 10 10 8
55 55 56 56 55 54 55 51 47 42 42 45 42 41 44 44 46 40 33 24 26 19 30 28 25 13 17 23 25 27 20 23 17 15 22 20 26 29 23 27 24 16 26 29 25 22 21 24 25 24 20 15 16 15 18 16 5 6 12 10 10 11 13 15 17 15 7 6 20 20 7 -8 15 16 15 16 14 11 11 11 10 10 9 11 9 9 10 11
54 55 56 56 54 53 54 46 41 43 45 40 36 43 42 43 46 46 33 23 7 15 27 19 18 12 18 16 18 26 30 14 15 11 32 21 27 24 29 15 22 14 22 26 10 10 13 22 23 20 17 15 15 11 17 20 10 6 12 11 14 15 16 15 14 12 1 1 15 17 3 -1 12 12 14 16 13 11 11 12 10 9 9 9 9 9 8 9
55 55 55 56 54 53 43 38 41 45 43 42 46 43 43 44 44 44 28 20 10 21 15 22 25 16 32 20 24 31 4 14 13 21 16 23 26 28 20 14 25 28 29 25 22 3 22 22 23 19 16 10 10 8 15 18 16 1 12 17 18 18 17 15 15 13 6 15 19 16 11 3 2 4 16 18 14 12 12 12 12 10 9 9 9 10 10 11
55 55 55 55 53 48 42 40 44 48 40 44 44 43 42 44 43 41 26 6 -5 28 17 23 15 29 22 24 21 16 13 23 18 9 24 26 25 23 20 18 14 15 20 20 2 8 17 18 19 17 9 5 6 10 17 20 15 8 15 18 18 18 15 16 18 13 15 10 -3 9 14 3 -2 6 17 18 15 13 11 12 12 12 11 11 12 12 11 11
55 55 55 55 53 47 48 46 49 43 43 41 40 42 45 44 40 33 21 2 12 19 33 19 25 22 23 30 22 28 26 25 14 18 27 31 22 23 11 21 23 16 22 25 7 14 17 19 21 22 13 6 13 15 19 21 11 16 18 21 19 18 18 17 15 13 16 4 -3 -15 2 -3 -5 -2 11 15 12 10 12 13 13 13 12 11 13 13 11 11
52 52 55 53 50 50 48 47 45 44 42 42 41 42 42 37 29 25 16 -6 13 11 21 22 21 18 26 27 25 23 18 21 25 25 27 20 20 25 26 26 24 15 16 22 16 13 11 29 31 27 14 16 18 19 22 19 20 22 24 17 7 13 4 9 8 7 5 -5 -2 -9 -3 -1 -0 -1 4 6 12 15 14 14 13 13 12 12 12 11 12 11
50 51 49 52 53 45 42 36 41 43 43 42 44 42 36 31 24 14 -2 5 22 16 30 24 20 27 19 17 10 20 24 24 20 26 20 28 23 25 25 19 29 14 15 20 17 20 20 22 17 21 31 26 24 20 23 22 22 21 8 -1 -5 -3 -1 8 6 8 -6 -8 -15 -7 -3 2 3 0 10 13 15 17 15 16 13 12 10 11 11 11 11 12
49 49 50 47 45 44 35 36 39 42 41 42 43 41 32 24 22 7 7 27 7 10 8 15 22 16 18 11 10 14 12 20 18 20 14 14 17 18 18 14 19 7 4 7 7 19 18 12 7 16 27 21 15 11 15 15 18 14 7 2 -1 -3 -1 -8 -6 -3 -7 -6 -7 -4 4 4 3 6 12 13 12 13 17 16 12 12 11 11 11 13 12 13
49 47 46 45 47 46 45 42 42 42 41 40 40 39 30 19 0 10 11 16 5 12 11 23 21 16 13 10 9 11 15 9 19 17 18 14 15 16 20 20 19 9 -2 9 6 4 2 8 7 11 16 22 14 2 6 3 8 10 6 3 0 -2 1 -2 -6 -3 -4 -6 -4 -1 6 2 1 1 13 10 11 13 14 15 14 14 12 12 8 7 11 13
47 48 41 40 42 44 45 43 42 42 39 40 46 38 18 9 -7 24 17 18 11 17 21 16 17 10 6 0 5 12 4 10 11 12 20 10 12 11 13 19 21 19 20 6 -1 4 2 -3 5 9 -2 13 12 13 13 7 10 10 11 2 6 4 4 1 1 -2 0 0 1 5 8 4 2 6 15 11 13 13 12 13 10 7 4 6 3 6 9 9
44 43 42 42 41 40 44 41 43 42 37 37 26 26 11 1 6 9 13 18 19 19 17 18 6 7 2 9 9 11 9 12 9 8 13 10 10 12 13 14 20 20 22 8 14 13 -3 1 9 11 12 12 11 15 19 15 9 10 11 6 6 5 10 4 3 5 8 6 5 8 2 4 1 15 13 13 12 12 12 8 7 3 3 0 1 4 6 8
44 46 43 37 37 32 42 43 39 34 37 25 21 17 9 11 8 12 17 18 20 18 18 10 5 6 7 6 12 14 15 13 12 8 8 12 13 12 15 17 19 20 20 11 13 4 5 -15 9 19 13 10 13 17 18 18 2 3 5 8 6 13 11 12 10 3 4 6 4 6 4 -2 -2 13 12 13 12 10 7 6 5 1 -3 -2 -0 5 7 7
46 44 31 38 36 35 39 41 41 37 35 23 17 11 17 19 12 10 22 21 21 22 12 11 6 8 12 12 4 18 19 15 16 7 -0 8 8 14 15 17 21 21 22 18 14 18 8 2 13 5 2 12 18 15 16 18 15 12 7 8 12 14 13 11 1 4 5 0 -1 -1 3 3 3 -1 13 12 8 7 6 4 -1 -3 -1 -2 4 4 5 1
47 42 36 34 34 36 40 39 41 39 30 21 22 18 11 20 19 17 21 24 24 18 13 4 12 9 15 14 7 15 17 16 11 7 -0 3 4 14 16 18 19 22 22 25 14 18 16 9 0 8 8 12 11 9 13 17 18 9 8 17 6 -1 1 5 7 2 -3 -1 0 2 6 5 3 4 9 8 6 5 5 3 -1 -3 -4 -1 1 1 -2 -4
39 46 34 32 36 37 40 40 36 32 21 23 20 19 14 18 19 24 24 25 21 16 15 13 12 9 9 16 13 14 17 11 15 6 3 3 5 16 17 20 18 22 23 21 20 18 19 7 -1 8 7 7 4 7 3 5 16 17 16 12 13 10 8 4 4 5 5 -2 -1 1 5 -2 5 12 8 6 5 5 3 -1 -4 -7 1 0 -3 -6 -7 -2
35 36 23 27 37 37 37 36 33 26 20 20 19 20 17 21 24 28 28 27 22 11 17 15 12 12 10 14 13 14 15 17 13 9 5 7 4 20 19 23 22 23 23 20 19 19 18 3 -2 -6 7 4 -3 6 5 7 11 11 10 12 12 12 13 11 10 6 -1 -0 1 -0 -2 -2 -4 11 7 6 5 3 2 -0 -0 0 -0 -2 -5 -4 2 3
33 34 21 43 34 38 37 32 26 25 24 21 19 17 22 20 23 23 25 27 29 26 17 15 14 12 7 15 12 14 17 16 15 11 7 9 13 11 23 23 25 24 25 20 20 21 19 12 7 4 -3 -13 -2 14 13 11 11 11 11 11 11 9 7 5 3 13 10 5 4 3 -2 1 3 9 10 1 4 6 0 -2 -1 -1 -5 -7 -4 1 3 4
39 25 23 34 36 44 33 27 25 23 25 20 16 22 24 33 18 19 24 28 26 22 21 20 19 15 14 13 11 16 15 18 13 10 8 14 16 18 20 24 25 25 24 18 18 21 21 13 10 6 -7 -8 7 13 13 12 12 11 10 11 12 12 10 6 1 1 8 7 9 6 3 1 8 11 2 1 3 -0 -1 1 0 -2 -4 -2 -0 0 -0 3
24 3 27 33 34 42 20 21 26 27 23 24 26 19 22 21 19 19 21 22 20 21 18 16 15 14 14 18 19 17 17 13 11 16 10 12 16 19 24 25 25 25 25 21 19 20 24 12 6 -6 -10 0 14 14 15 14 12 11 10 11 11 9 10 9 9 10 9 9 5 1 -0 0 2 5 2 2 -3 -4 -1 -1 -0 -5 -6 -3 -2 -0 3 3
15 22 33 38 37 46 23 18 19 22 24 18 15 17 19 22 20 19 20 23 19 19 14 15 16 17 13 22 20 10 17 11 4 8 10 14 15 25 24 25 27 25 22 20 18 24 9 7 1 -4 -2 -7 -3 12 13 12 13 10 12 11 11 12 12 13 13 10 7 6 3 2 -2 -0 -0 1 2 -3 -1 -3 0 -1 -4 -3 -0 1 -0 -1 1 4
13 19 24 27 29 32 21 15 21 24 23 21 15 12 15 19 22 23 21 21 25 22 15 11 18 20 18 20 18 20 19 9 15 8 14 18 20 21 25 24 25 26 28 29 28 27 17 8 -1 -7 -7 -6 -6 -6 -5 -1 9 9 11 10 11 12 12 11 7 7 5 7 2 2 0 0 2 -0 -2 -2 -3 -1 1 -2 -2 0 -3 -5 -1 1 4 4
14 14 23 22 24 28 21 23 19 21 21 19 20 13 13 14 14 24 24 23 25 23 20 16 19 18 17 15 12 14 9 11 8 17 14 14 14 15 25 25 23 25 28 29 26 21 18 15 1 1 0 -4 -1 3 1 5 9 12 15 15 17 12 13 14 12 8 2 4 6 8 7 2 0 -2 0 -6 -2 1 -0 -3 -4 -5 -7 2 4 0 1 3
16 24 19 11 26 23 19 20 21 19 19 18 16 14 16 15 11 11 23 16 21 22 21 18 18 11 12 16 15 13 9 8 11 11 13 14 16 13 19 23 24 25 27 28 25 17 12 14 9 7 10 8 5 5 8 11 11 9 10 13 14 13 13 12 10 8 10 9 3 3 2 3 -0 -2 -6 -4 1 -1 -3 -1 -0 -4 -0 0 0 3 10 4
27 13 15 15 22 15 25 19 21 19 20 19 21 14 17 14 14 16 12 19 21 21 16 8 15 20 20 15 12 14 7 5 7 12 11 15 18 19 19 18 20 22 25 21 22 15 10 8 9 13 13 13 12 11 11 12 12 10 9 8 10 12 13 12 12 12 12 7 3 1 -1 -3 -7 -6 -4 0 -2 -2 2 1 -1 3 3 5 6 4 4 5
22 18 19 22 24 16 17 12 23 24 24 23 22 15 18 14 15 14 14 16 6 9 12 13 11 18 21 22 15 16 11 12 18 15 14 17 18 20 19 15 20 22 17 18 19 15 12 7 15 14 14 10 8 7 7 5 2 4 9 8 9 11 13 14 12 10 5 4 0 -3 -6 -6 -4 -4 -1 -1 0 2 -2 1 3 3 3 4 3 3 4 6
18 16 15 21 22 23 24 21 17 20 20 20 22 14 13 14 14 16 20 13 12 7 16 12 14 20 22 23 17 12 13 10 11 17 16 18 20 18 15 19 21 21 18 18 18 19 14 3 19 16 11 9 5 9 10 -0 1 2 6 11 11 10 8 7 6 3 4 1 -3 -4 -1 -2 -3 -1 0 2 1 2 2 2 2 2 2 2 2 4 5 9
22 21 25 21 19 16 25 20 14 14 17 17 14 15 19 15 14 18 14 16 12 12 17 14 18 21 23 23 21 15 17 16 18 19 16 19 18 18 18 17 22 22 22 20 19 19 15 10 14 12 8 3 -5 -4 -3 -2 4 6 6 10 8 5 5 0 3 2 1 1 -2 -1 -2 -2 -1 -1 1 1 1 2 1 1 2 2 1 3 4 5 7 8
18 17 29 30 17 21 13 18 16 17 19 14 20 24 17 17 17 20 16 19 24 25 21 20 20 20 18 13 15 18 22 21 22 25 24 24 26 25 24 24 23 22 19 19 14 14 14 13 10 10 5 0 -5 -2 -3 -3 2 4 8 8 5 1 -2 -2 -3 -5 -6 -6 -1 -5 -3 -4 -3 1 -1 -2 -0 1 1 2 3 3 4 3 3 6 7 6